Tracking 23610 objects as of 19-Sep-2021
HD Live streaming from Space Station
objects crossing your sky now

PINA 2A

Track PINA 2A now!
10-day predictions


NORAD ID: 41843
Int'l Code: 2016-066C
Perigee: 480.6 km
Apogee: 509.2 km
Inclination: 97.4 °
Period: 94.4 minutes
Semi major axis: 6865 km
RCS: Unknown
Launch date: November 9, 2016
Source: People's Republic of China (PRC)
Launch site: Jiuquan Satellite Launch Center, China (JSC)
aabbcc
Your satellite tracking list
Your tracking list is empty




NASA's NSSDC Master Catalog

Two Line Element Set (TLE):
1 41843U 16066C   21261.85026943  .00001467  00000-0  59572-4 0  9998
2 41843  97.4063 270.6025 0020785 183.6341 299.9870 15.26012037270078
Source of the keplerian elements: AFSPC